Location: Spruce Knob
(38.6995°N, 79.5330°W)
Time: 18:28:39
(UTC-04:00)

NANOSAT C BR1 - Visible Passes

Search period start: 31 March 2023 00:00
Search period end: 10 April 2023 00:00
Orbit: 575 x 590 km, 98.0° (Epoch: 31 March)

Date Brightness Start Highest point End Pass type
(mag) Time Alt. Az. Time Alt. Az. Time Alt. Az.
31 Mar ? 03:47:39 10° NNE 03:48:14 14° NNE 03:48:14 14° NNE visible
01 Apr ? 03:53:26 10° NNE 03:54:15 15° NNE 03:54:15 15° NNE visible
02 Apr ? 03:59:14 10° NNE 04:00:14 17° NNE 04:00:14 17° NNE visible
03 Apr ? 04:05:01 10° N 04:06:12 19° N 04:06:12 19° N visible
04 Apr ? 04:10:46 10° N 04:12:08 20° N 04:12:08 20° N visible
05 Apr ? 04:16:32 10° N 04:18:03 22° N 04:18:03 22° N visible
06 Apr ? 04:22:17 10° N 04:23:56 23° N 04:23:56 23° N visible
07 Apr ? 04:28:01 10° N 04:29:49 23° NNW 04:29:49 23° NNW visible
08 Apr ? 04:33:46 10° N 04:35:39 23° NNW 04:35:39 23° NNW visible
09 Apr ? 03:04:54 10° NE 03:05:05 11° NE 03:05:05 11° NE visible
09 Apr ? 04:39:29 10° N 04:41:28 23° NNW 04:41:28 23° NNW visible
